Year,Month,Day,Hour,Minute,Value (Times are PST for temperature in C)
2014,08,11,00,00,15.00
2014,08,11,00,01,15.00
2014,08,11,00,02,15.00
2014,08,11,00,03,15.00
2014,08,11,00,04,15.00
2014,08,11,00,05,15.00
2014,08,11,00,06,15.00
2014,08,11,00,07,15.00
2014,08,11,00,08,15.00
2014,08,11,00,09,14.90
2014,08,11,00,10,14.90
2014,08,11,00,11,14.90
2014,08,11,00,12,14.90
2014,08,11,00,13,14.80
2014,08,11,00,14,14.80
2014,08,11,00,15,14.80
2014,08,11,00,16,14.70
2014,08,11,00,17,14.70
2014,08,11,00,18,14.70
2014,08,11,00,19,14.60
2014,08,11,00,20,14.60
2014,08,11,00,21,14.60
2014,08,11,00,22,14.60
2014,08,11,00,23,14.50
2014,08,11,00,24,14.50
2014,08,11,00,25,14.50
2014,08,11,00,26,14.40
2014,08,11,00,27,14.40
2014,08,11,00,28,14.40
2014,08,11,00,29,14.30
2014,08,11,00,30,14.30
2014,08,11,00,31,14.30
2014,08,11,00,32,14.30
2014,08,11,00,33,14.30
2014,08,11,00,34,14.30
2014,08,11,00,35,14.30
2014,08,11,00,36,14.30
2014,08,11,00,37,14.30
2014,08,11,00,38,14.30
2014,08,11,00,39,14.20
2014,08,11,00,40,14.20
2014,08,11,00,41,14.20
2014,08,11,00,42,14.20
2014,08,11,00,43,14.20
2014,08,11,00,44,14.10
2014,08,11,00,45,14.20
2014,08,11,00,46,14.20
2014,08,11,00,47,14.20
2014,08,11,00,48,14.20
2014,08,11,00,49,14.20
2014,08,11,00,50,14.20
2014,08,11,00,51,14.20
2014,08,11,00,52,14.30
2014,08,11,00,53,14.20
2014,08,11,00,54,14.20
2014,08,11,00,55,14.20
2014,08,11,00,56,14.20
2014,08,11,00,57,14.20
2014,08,11,00,58,14.20
2014,08,11,00,59,14.20
2014,08,11,01,00,14.20
2014,08,11,01,01,14.20
2014,08,11,01,02,14.20
2014,08,11,01,03,14.20
2014,08,11,01,04,14.20
2014,08,11,01,05,14.20
2014,08,11,01,06,14.20
2014,08,11,01,07,14.20
2014,08,11,01,08,14.20
2014,08,11,01,09,14.10
2014,08,11,01,10,14.10
2014,08,11,01,11,14.10
2014,08,11,01,12,14.00
2014,08,11,01,13,14.00
2014,08,11,01,14,13.90
2014,08,11,01,15,13.90
2014,08,11,01,16,13.90
2014,08,11,01,17,13.90
2014,08,11,01,18,13.90
2014,08,11,01,19,14.00
2014,08,11,01,20,13.90
2014,08,11,01,21,13.90
2014,08,11,01,22,13.90
2014,08,11,01,23,13.90
2014,08,11,01,24,13.90
2014,08,11,01,25,13.90
2014,08,11,01,26,13.90
2014,08,11,01,27,13.90
2014,08,11,01,28,13.90
2014,08,11,01,29,13.90
2014,08,11,01,30,13.90
2014,08,11,01,31,13.90
2014,08,11,01,32,13.90
2014,08,11,01,33,13.90
2014,08,11,01,34,13.90
2014,08,11,01,35,13.90
2014,08,11,01,36,13.90
2014,08,11,01,37,13.80
2014,08,11,01,38,13.80
2014,08,11,01,39,13.80
2014,08,11,01,40,13.90
2014,08,11,01,41,13.90
2014,08,11,01,42,13.90
2014,08,11,01,43,13.90
2014,08,11,01,44,13.90
2014,08,11,01,45,13.90
2014,08,11,01,46,14.00
2014,08,11,01,47,14.00
2014,08,11,01,48,14.00
2014,08,11,01,49,14.00
2014,08,11,01,50,14.00
2014,08,11,01,51,14.00
2014,08,11,01,52,14.00
2014,08,11,01,53,14.00
2014,08,11,01,54,14.00
2014,08,11,01,55,14.00
2014,08,11,01,56,14.00
2014,08,11,01,57,14.10
2014,08,11,01,58,14.10
2014,08,11,01,59,14.10
2014,08,11,02,00,14.10
2014,08,11,02,01,14.10
2014,08,11,02,02,14.00
2014,08,11,02,03,14.00
2014,08,11,02,04,13.90
2014,08,11,02,05,13.90
2014,08,11,02,06,13.90
2014,08,11,02,07,13.80
2014,08,11,02,08,13.80
2014,08,11,02,09,13.80
2014,08,11,02,10,13.80
2014,08,11,02,11,13.80
2014,08,11,02,12,13.80
2014,08,11,02,13,13.70
2014,08,11,02,14,13.70
2014,08,11,02,15,13.70
2014,08,11,02,16,13.80
2014,08,11,02,17,13.80
2014,08,11,02,18,13.80
2014,08,11,02,19,13.80
2014,08,11,02,20,13.80
2014,08,11,02,21,13.80
2014,08,11,02,22,13.80
2014,08,11,02,23,13.80
2014,08,11,02,24,13.80
2014,08,11,02,25,13.70
2014,08,11,02,26,13.70
2014,08,11,02,27,13.70
2014,08,11,02,28,13.70
2014,08,11,02,29,13.70
2014,08,11,02,30,13.70
2014,08,11,02,31,13.70
2014,08,11,02,32,13.70
2014,08,11,02,33,13.80
2014,08,11,02,34,13.80
2014,08,11,02,35,13.80
2014,08,11,02,36,13.80
2014,08,11,02,37,13.80
2014,08,11,02,38,13.80
2014,08,11,02,39,13.80
2014,08,11,02,40,13.80
2014,08,11,02,41,13.90
2014,08,11,02,42,13.90
2014,08,11,02,43,14.00
2014,08,11,02,44,14.00
2014,08,11,02,45,14.10
2014,08,11,02,46,14.10
2014,08,11,02,47,14.10
2014,08,11,02,48,14.20
2014,08,11,02,49,14.20
2014,08,11,02,50,14.30
2014,08,11,02,51,14.30
2014,08,11,02,52,14.30
2014,08,11,02,53,14.40
2014,08,11,02,54,14.50
2014,08,11,02,55,14.50
2014,08,11,02,56,14.60
2014,08,11,02,57,14.70
2014,08,11,02,58,14.90
2014,08,11,02,59,15.00
2014,08,11,03,00,15.00
2014,08,11,03,01,15.10
2014,08,11,03,02,15.30
2014,08,11,03,03,15.40
2014,08,11,03,04,15.50
2014,08,11,03,05,15.70
2014,08,11,03,06,15.80
2014,08,11,03,07,15.90
2014,08,11,03,08,15.90
2014,08,11,03,09,16.00
2014,08,11,03,10,16.10
2014,08,11,03,11,16.10
2014,08,11,03,12,16.20
2014,08,11,03,13,16.20
2014,08,11,03,14,16.20
2014,08,11,03,15,16.20
2014,08,11,03,16,16.20
2014,08,11,03,17,16.20
2014,08,11,03,18,16.20
2014,08,11,03,19,16.20
2014,08,11,03,20,16.20
2014,08,11,03,21,16.20
2014,08,11,03,22,16.20
2014,08,11,03,23,16.20
2014,08,11,03,24,16.20
2014,08,11,03,25,16.20
2014,08,11,03,26,16.20
2014,08,11,03,27,16.20
2014,08,11,03,28,16.10
2014,08,11,03,29,16.10
2014,08,11,03,30,16.10
2014,08,11,03,31,16.00
2014,08,11,03,32,16.00
2014,08,11,03,33,16.00
2014,08,11,03,34,15.90
2014,08,11,03,35,15.90
2014,08,11,03,36,15.90
2014,08,11,03,37,15.90
2014,08,11,03,38,15.90
2014,08,11,03,39,15.90
2014,08,11,03,40,15.90
2014,08,11,03,41,15.80
2014,08,11,03,42,15.80
2014,08,11,03,43,15.80
2014,08,11,03,44,15.80
2014,08,11,03,45,15.80
2014,08,11,03,46,15.80
2014,08,11,03,47,15.80
2014,08,11,03,48,15.70
2014,08,11,03,49,15.70
2014,08,11,03,50,15.70
2014,08,11,03,51,15.70
2014,08,11,03,52,15.70
2014,08,11,03,53,15.70
2014,08,11,03,54,15.70
2014,08,11,03,55,15.70
2014,08,11,03,56,15.70
2014,08,11,03,57,15.70
2014,08,11,03,58,15.70
2014,08,11,03,59,15.60
2014,08,11,04,00,15.60
2014,08,11,04,01,15.60
2014,08,11,04,02,15.60
2014,08,11,04,03,15.60
2014,08,11,04,04,15.60
2014,08,11,04,05,15.60
2014,08,11,04,06,15.60
2014,08,11,04,07,15.60
2014,08,11,04,08,15.60
2014,08,11,04,09,15.60
2014,08,11,04,10,15.60
2014,08,11,04,11,15.60
2014,08,11,04,12,15.60
2014,08,11,04,13,15.60
2014,08,11,04,14,15.50
2014,08,11,04,15,15.50
2014,08,11,04,16,15.50
2014,08,11,04,17,15.40
2014,08,11,04,18,15.40
2014,08,11,04,19,15.40
2014,08,11,04,20,15.40
2014,08,11,04,21,15.40
2014,08,11,04,22,15.40
2014,08,11,04,23,15.40
2014,08,11,04,24,15.40
2014,08,11,04,25,15.40
2014,08,11,04,26,15.40
2014,08,11,04,27,15.40
2014,08,11,04,28,15.40
2014,08,11,04,29,15.40
2014,08,11,04,30,15.40
2014,08,11,04,31,15.30
2014,08,11,04,32,15.30
2014,08,11,04,33,15.30
2014,08,11,04,34,15.30
2014,08,11,04,35,15.30
2014,08,11,04,36,15.30
2014,08,11,04,37,15.30
2014,08,11,04,38,15.30
2014,08,11,04,39,15.20
2014,08,11,04,40,15.30
2014,08,11,04,41,15.30
2014,08,11,04,42,15.20
2014,08,11,04,43,15.20
2014,08,11,04,44,15.20
2014,08,11,04,45,15.20
2014,08,11,04,46,15.20
2014,08,11,04,47,15.20
2014,08,11,04,48,15.20
2014,08,11,04,49,15.20
2014,08,11,04,50,15.10
2014,08,11,04,51,15.10
2014,08,11,04,52,15.10
2014,08,11,04,53,15.10
2014,08,11,04,54,15.10
2014,08,11,04,55,15.10
2014,08,11,04,56,15.10
2014,08,11,04,57,15.00
2014,08,11,04,58,15.00
2014,08,11,04,59,15.00
2014,08,11,05,00,15.10
2014,08,11,05,01,15.10
2014,08,11,05,02,15.10
2014,08,11,05,03,15.10
2014,08,11,05,04,15.10
2014,08,11,05,05,15.10
2014,08,11,05,06,15.10
2014,08,11,05,07,15.10
2014,08,11,05,08,15.10
2014,08,11,05,09,15.10
2014,08,11,05,10,15.10
2014,08,11,05,11,15.10
2014,08,11,05,12,15.00
2014,08,11,05,13,15.00
2014,08,11,05,14,15.00
2014,08,11,05,15,15.00
2014,08,11,05,16,15.00
2014,08,11,05,17,15.00
2014,08,11,05,18,15.00
2014,08,11,05,19,15.00
2014,08,11,05,20,15.00
2014,08,11,05,21,15.00
2014,08,11,05,22,15.00
2014,08,11,05,23,14.90
2014,08,11,05,24,14.90
2014,08,11,05,25,14.80
2014,08,11,05,26,14.80
2014,08,11,05,27,14.70
2014,08,11,05,28,14.70
2014,08,11,05,29,14.70
2014,08,11,05,30,14.60
2014,08,11,05,31,14.60
2014,08,11,05,32,14.60
2014,08,11,05,33,14.50
2014,08,11,05,34,14.50
2014,08,11,05,35,14.50
2014,08,11,05,36,14.50
2014,08,11,05,37,14.40
2014,08,11,05,38,14.40
2014,08,11,05,39,14.40
2014,08,11,05,40,14.40
2014,08,11,05,41,14.30
2014,08,11,05,42,14.30
2014,08,11,05,43,14.30
2014,08,11,05,44,14.30
2014,08,11,05,45,14.30
2014,08,11,05,46,14.30
2014,08,11,05,47,14.30
2014,08,11,05,48,14.30
2014,08,11,05,49,14.20
2014,08,11,05,50,14.20
2014,08,11,05,51,14.20
2014,08,11,05,52,14.20
2014,08,11,05,53,14.20
2014,08,11,05,54,14.20
2014,08,11,05,55,14.30
2014,08,11,05,56,14.30
2014,08,11,05,57,14.30
2014,08,11,05,58,14.30
2014,08,11,05,59,14.30
2014,08,11,06,00,14.30
2014,08,11,06,01,14.30
2014,08,11,06,02,14.30
2014,08,11,06,03,14.30
2014,08,11,06,04,14.30
2014,08,11,06,05,14.30
2014,08,11,06,06,14.30
2014,08,11,06,07,14.40
2014,08,11,06,08,14.40
2014,08,11,06,09,14.40
2014,08,11,06,10,14.40
2014,08,11,06,11,14.40
2014,08,11,06,12,14.40
2014,08,11,06,13,14.40
2014,08,11,06,14,14.40
2014,08,11,06,15,14.40
2014,08,11,06,16,14.40
2014,08,11,06,17,14.40
2014,08,11,06,18,14.40
2014,08,11,06,19,14.40
2014,08,11,06,20,14.40
2014,08,11,06,21,14.40
2014,08,11,06,22,14.40
2014,08,11,06,23,14.40
2014,08,11,06,24,14.40
2014,08,11,06,25,14.40
2014,08,11,06,26,14.40
2014,08,11,06,27,14.40
2014,08,11,06,28,14.40
2014,08,11,06,29,14.40
2014,08,11,06,30,14.40
2014,08,11,06,31,14.40
2014,08,11,06,32,14.40
2014,08,11,06,33,14.40
2014,08,11,06,34,14.40
2014,08,11,06,35,14.40
2014,08,11,06,36,14.40
2014,08,11,06,37,14.40
2014,08,11,06,38,14.40
2014,08,11,06,39,14.50
2014,08,11,06,40,14.50
2014,08,11,06,41,14.50
2014,08,11,06,42,14.50
2014,08,11,06,43,14.50
2014,08,11,06,44,14.50
2014,08,11,06,45,14.60
2014,08,11,06,46,14.60
2014,08,11,06,47,14.60
2014,08,11,06,48,14.60
2014,08,11,06,49,14.70
2014,08,11,06,50,14.70
2014,08,11,06,51,14.70
2014,08,11,06,52,14.70
2014,08,11,06,53,14.80
2014,08,11,06,54,14.80
2014,08,11,06,55,14.80
2014,08,11,06,56,14.90
2014,08,11,06,57,14.90
2014,08,11,06,58,15.00
2014,08,11,06,59,15.00
2014,08,11,07,00,15.00
2014,08,11,07,01,15.00
2014,08,11,07,02,15.00
2014,08,11,07,03,15.00
2014,08,11,07,04,15.00
2014,08,11,07,05,15.00
2014,08,11,07,06,15.10
2014,08,11,07,07,15.20
2014,08,11,07,08,15.30
2014,08,11,07,09,15.30
2014,08,11,07,10,15.40
2014,08,11,07,11,15.40
2014,08,11,07,12,15.50
2014,08,11,07,13,15.60
2014,08,11,07,14,15.70
2014,08,11,07,15,15.80
2014,08,11,07,16,15.80
2014,08,11,07,17,15.90
2014,08,11,07,18,15.90
2014,08,11,07,19,16.00
2014,08,11,07,20,16.00
2014,08,11,07,21,16.10
2014,08,11,07,22,16.10
2014,08,11,07,23,16.20
2014,08,11,07,24,16.20
2014,08,11,07,25,16.30
2014,08,11,07,26,16.30
2014,08,11,07,27,16.40
2014,08,11,07,28,16.50
2014,08,11,07,29,16.50
2014,08,11,07,30,16.60
2014,08,11,07,31,16.60
2014,08,11,07,32,16.70
2014,08,11,07,33,16.70
2014,08,11,07,34,16.80
2014,08,11,07,35,16.80
2014,08,11,07,36,16.90
2014,08,11,07,37,17.00
2014,08,11,07,38,17.10
2014,08,11,07,39,17.10
2014,08,11,07,40,17.20
2014,08,11,07,41,17.30
2014,08,11,07,42,17.40
2014,08,11,07,43,17.50
2014,08,11,07,44,17.60
2014,08,11,07,45,17.80
2014,08,11,07,46,17.90
2014,08,11,07,47,18.10
2014,08,11,07,48,18.20
2014,08,11,07,49,18.40
2014,08,11,07,50,18.50
2014,08,11,07,51,18.70
2014,08,11,07,52,18.80
2014,08,11,07,53,18.90
2014,08,11,07,54,19.10
2014,08,11,07,55,19.20
2014,08,11,07,56,19.30
2014,08,11,07,57,19.40
2014,08,11,07,58,19.60
2014,08,11,07,59,19.70
2014,08,11,08,00,19.80
2014,08,11,08,01,19.90
2014,08,11,08,02,20.00
2014,08,11,08,03,20.10
2014,08,11,08,04,20.20
2014,08,11,08,05,20.40
2014,08,11,08,06,20.50
2014,08,11,08,07,20.60
2014,08,11,08,08,20.70
2014,08,11,08,09,20.80
2014,08,11,08,10,20.90
2014,08,11,08,11,21.00
2014,08,11,08,12,21.10
2014,08,11,08,13,21.10
2014,08,11,08,14,21.20
2014,08,11,08,15,21.30
2014,08,11,08,16,21.40
2014,08,11,08,17,21.50
2014,08,11,08,18,21.50
2014,08,11,08,19,21.60
2014,08,11,08,20,21.70
2014,08,11,08,21,21.80
2014,08,11,08,22,21.80
2014,08,11,08,23,21.90
2014,08,11,08,24,21.90
2014,08,11,08,25,22.00
2014,08,11,08,26,22.10
2014,08,11,08,27,22.20
2014,08,11,08,28,22.20
2014,08,11,08,29,22.20
2014,08,11,08,30,22.20
2014,08,11,08,31,22.20
2014,08,11,08,32,22.50
2014,08,11,08,33,22.60
2014,08,11,08,34,22.80
2014,08,11,08,35,22.80
2014,08,11,08,36,22.90
2014,08,11,08,37,23.00
2014,08,11,08,38,23.10
2014,08,11,08,39,23.20
2014,08,11,08,40,23.30
2014,08,11,08,41,23.30
2014,08,11,08,42,23.40
2014,08,11,08,43,23.40
2014,08,11,08,44,23.50
2014,08,11,08,45,23.60
2014,08,11,08,46,23.70
2014,08,11,08,47,23.80
2014,08,11,08,48,23.90
2014,08,11,08,49,24.00
2014,08,11,08,50,24.10
2014,08,11,08,51,24.20
2014,08,11,08,52,24.30
2014,08,11,08,53,24.40
2014,08,11,08,54,24.50
2014,08,11,08,55,24.50
2014,08,11,08,56,24.60
2014,08,11,08,57,24.70
2014,08,11,08,58,24.80
2014,08,11,08,59,24.90
2014,08,11,09,00,25.00
2014,08,11,09,01,25.10
2014,08,11,09,02,25.20
2014,08,11,09,03,25.20
2014,08,11,09,04,25.30
2014,08,11,09,05,25.40
2014,08,11,09,06,25.50
2014,08,11,09,07,25.60
2014,08,11,09,08,25.70
2014,08,11,09,09,25.70
2014,08,11,09,10,25.80
2014,08,11,09,11,25.80
2014,08,11,09,12,25.90
2014,08,11,09,13,26.00
2014,08,11,09,14,26.00
2014,08,11,09,15,26.10
2014,08,11,09,16,26.20
2014,08,11,09,17,26.30
2014,08,11,09,18,26.40
2014,08,11,09,19,26.50
2014,08,11,09,20,26.60
2014,08,11,09,21,26.70
2014,08,11,09,22,26.80
2014,08,11,09,23,26.80
2014,08,11,09,24,26.90
2014,08,11,09,25,27.00
2014,08,11,09,26,27.00
2014,08,11,09,27,27.00
2014,08,11,09,28,27.00
2014,08,11,09,29,27.00
2014,08,11,09,30,27.00
2014,08,11,09,31,27.10
2014,08,11,09,32,27.10
2014,08,11,09,33,27.10
2014,08,11,09,34,27.10
2014,08,11,09,35,27.20
2014,08,11,09,36,27.20
2014,08,11,09,37,27.20
2014,08,11,09,38,27.30
2014,08,11,09,39,27.30
2014,08,11,09,40,27.40
2014,08,11,09,41,27.40
2014,08,11,09,42,27.50
2014,08,11,09,43,27.50
2014,08,11,09,44,27.60
2014,08,11,09,45,27.70
2014,08,11,09,46,27.80
2014,08,11,09,47,27.80
2014,08,11,09,48,27.90
2014,08,11,09,49,28.00
2014,08,11,09,50,28.10
2014,08,11,09,51,28.20
2014,08,11,09,52,28.30
2014,08,11,09,53,28.40
2014,08,11,09,54,28.50
2014,08,11,09,55,28.50
2014,08,11,09,56,28.60
2014,08,11,09,57,28.60
2014,08,11,09,58,28.60
2014,08,11,09,59,28.60
2014,08,11,10,00,28.60
2014,08,11,10,01,28.70
2014,08,11,10,02,28.70
2014,08,11,10,03,28.60
2014,08,11,10,04,28.60
2014,08,11,10,05,28.50
2014,08,11,10,06,28.50
2014,08,11,10,07,28.40
2014,08,11,10,08,28.40
2014,08,11,10,09,28.40
2014,08,11,10,10,28.30
2014,08,11,10,11,28.30
2014,08,11,10,12,28.30
2014,08,11,10,13,28.40
2014,08,11,10,14,28.40
2014,08,11,10,15,28.50
2014,08,11,10,16,28.60
2014,08,11,10,17,28.70
2014,08,11,10,18,28.80
2014,08,11,10,19,28.80
2014,08,11,10,20,28.90
2014,08,11,10,21,28.90
2014,08,11,10,22,28.90
2014,08,11,10,23,28.80
2014,08,11,10,24,28.80
2014,08,11,10,25,28.90
2014,08,11,10,26,28.90
2014,08,11,10,27,28.90
2014,08,11,10,28,28.90
2014,08,11,10,29,29.00
2014,08,11,10,30,29.10
2014,08,11,10,31,29.20
2014,08,11,10,32,29.30
2014,08,11,10,33,29.40
2014,08,11,10,34,29.60
2014,08,11,10,35,29.70
2014,08,11,10,36,29.80
2014,08,11,10,37,30.00
2014,08,11,10,38,30.10
2014,08,11,10,39,30.30
2014,08,11,10,40,30.40
2014,08,11,10,41,30.50
2014,08,11,10,42,30.60
2014,08,11,10,43,30.70
2014,08,11,10,44,30.50
2014,08,11,10,45,30.30
2014,08,11,10,46,30.20
2014,08,11,10,47,30.00
2014,08,11,10,48,30.00
2014,08,11,10,49,29.90
2014,08,11,10,50,29.90
2014,08,11,10,51,30.00
2014,08,11,10,52,30.10
2014,08,11,10,53,30.10
2014,08,11,10,54,30.20
2014,08,11,10,55,30.30
2014,08,11,10,56,30.50
2014,08,11,10,57,30.60
2014,08,11,10,58,30.70
2014,08,11,10,59,30.90
2014,08,11,11,00,31.00
2014,08,11,11,01,31.10
2014,08,11,11,02,31.30
2014,08,11,11,03,31.40
2014,08,11,11,04,31.50
2014,08,11,11,05,31.70
2014,08,11,11,06,31.80
2014,08,11,11,07,31.80
2014,08,11,11,08,31.90
2014,08,11,11,09,31.90
2014,08,11,11,10,31.90
2014,08,11,11,11,32.00
2014,08,11,11,12,32.10
2014,08,11,11,13,32.10
2014,08,11,11,14,32.20
2014,08,11,11,15,32.30
2014,08,11,11,16,32.30
2014,08,11,11,17,32.40
2014,08,11,11,18,32.40
2014,08,11,11,19,32.40
2014,08,11,11,20,32.40
2014,08,11,11,21,32.40
2014,08,11,11,22,32.20
2014,08,11,11,23,31.90
2014,08,11,11,24,31.60
2014,08,11,11,25,31.40
2014,08,11,11,26,31.20
2014,08,11,11,27,31.10
2014,08,11,11,28,31.00
2014,08,11,11,29,30.90
2014,08,11,11,30,30.80
2014,08,11,11,31,30.60
2014,08,11,11,32,30.60
2014,08,11,11,33,30.60
2014,08,11,11,34,30.60
2014,08,11,11,35,30.60
2014,08,11,11,36,30.70
2014,08,11,11,37,30.80
2014,08,11,11,38,30.90
2014,08,11,11,39,31.00
2014,08,11,11,40,31.10
2014,08,11,11,41,31.30
2014,08,11,11,42,31.40
2014,08,11,11,43,31.50
2014,08,11,11,44,31.60
2014,08,11,11,45,31.70
2014,08,11,11,46,31.70
2014,08,11,11,47,31.60
2014,08,11,11,48,31.60
2014,08,11,11,49,31.60
2014,08,11,11,50,31.50
2014,08,11,11,51,31.50
2014,08,11,11,52,31.60
2014,08,11,11,53,31.60
2014,08,11,11,54,31.60
2014,08,11,11,55,31.70
2014,08,11,11,56,31.80
2014,08,11,11,57,31.90
2014,08,11,11,58,32.00
2014,08,11,11,59,32.10
2014,08,11,12,00,32.10
2014,08,11,12,01,32.10
2014,08,11,12,02,32.20
2014,08,11,12,03,32.20
2014,08,11,12,04,32.20
2014,08,11,12,05,32.30
2014,08,11,12,06,32.30
2014,08,11,12,07,32.40
2014,08,11,12,08,32.40
2014,08,11,12,09,32.50
2014,08,11,12,10,32.60
2014,08,11,12,11,32.70
2014,08,11,12,12,32.70
2014,08,11,12,13,32.80
2014,08,11,12,14,32.90
2014,08,11,12,15,32.90
2014,08,11,16,02,32.90
2014,08,11,16,03,32.90
2014,08,11,16,04,32.70
2014,08,11,16,05,32.60
2014,08,11,16,06,32.60
2014,08,11,16,07,32.60
2014,08,11,16,08,32.60
2014,08,11,16,09,32.60
2014,08,11,16,10,32.70
2014,08,11,16,11,32.80
2014,08,11,16,12,32.90
2014,08,11,16,13,32.90
2014,08,11,16,30,32.80
2014,08,11,16,31,32.50
2014,08,11,16,32,32.20
2014,08,11,16,33,31.90
2014,08,11,16,34,31.60
2014,08,11,16,35,31.40
2014,08,11,16,36,31.10
2014,08,11,16,37,30.90
2014,08,11,16,38,30.70
2014,08,11,16,39,30.50
2014,08,11,16,40,30.20
2014,08,11,16,41,29.90
2014,08,11,16,42,29.70
2014,08,11,16,43,29.60
2014,08,11,16,44,29.50
2014,08,11,16,45,29.50
2014,08,11,16,46,29.50
2014,08,11,16,47,29.50
2014,08,11,16,48,29.60
2014,08,11,16,49,29.60
2014,08,11,16,50,29.60
2014,08,11,16,51,29.70
2014,08,11,16,52,29.70
2014,08,11,16,53,29.70
2014,08,11,16,54,29.70
2014,08,11,16,55,29.70
2014,08,11,16,56,29.80
2014,08,11,16,57,29.80
2014,08,11,16,58,29.80
2014,08,11,16,59,29.90
2014,08,11,17,00,29.90
2014,08,11,17,01,29.90
2014,08,11,17,02,29.90
2014,08,11,17,03,29.80
2014,08,11,17,04,29.80
2014,08,11,17,05,29.80
2014,08,11,17,06,29.90
2014,08,11,17,07,29.90
2014,08,11,17,08,29.90
2014,08,11,17,09,30.00
2014,08,11,17,10,30.00
2014,08,11,17,11,30.10
2014,08,11,17,12,30.00
2014,08,11,17,13,30.00
2014,08,11,17,14,30.00
2014,08,11,17,15,29.90
2014,08,11,17,16,29.80
2014,08,11,17,17,29.80
2014,08,11,17,18,29.70
2014,08,11,17,19,29.60
2014,08,11,17,20,29.60
2014,08,11,17,21,29.60
2014,08,11,17,22,29.60
2014,08,11,17,23,29.60
2014,08,11,17,24,29.60
2014,08,11,17,25,29.60
2014,08,11,17,26,29.70
2014,08,11,17,27,29.80
2014,08,11,17,28,29.80
2014,08,11,17,29,29.90
2014,08,11,17,30,30.00
2014,08,11,17,31,30.10
2014,08,11,17,32,30.20
2014,08,11,17,33,30.30
2014,08,11,17,34,30.40
2014,08,11,17,35,30.50
2014,08,11,17,36,30.60
2014,08,11,17,37,30.70
2014,08,11,17,38,30.80
2014,08,11,17,39,30.90
2014,08,11,17,40,31.00
2014,08,11,17,41,31.10
2014,08,11,17,42,31.20
2014,08,11,17,43,31.20
2014,08,11,17,44,31.30
2014,08,11,17,45,31.30
2014,08,11,17,46,31.40
2014,08,11,17,47,31.50
2014,08,11,17,48,31.60
2014,08,11,17,49,31.70
2014,08,11,17,50,31.80
2014,08,11,17,51,31.80
2014,08,11,17,52,31.90
2014,08,11,17,53,32.00
2014,08,11,17,54,32.10
2014,08,11,17,55,32.10
2014,08,11,17,56,32.10
2014,08,11,17,57,32.10
2014,08,11,17,58,32.10
2014,08,11,17,59,32.10
2014,08,11,18,00,32.20
2014,08,11,18,01,32.10
2014,08,11,18,02,32.10
2014,08,11,18,03,32.10
2014,08,11,18,04,32.10
2014,08,11,18,05,32.10
2014,08,11,18,06,32.00
2014,08,11,18,07,32.00
2014,08,11,18,08,31.90
2014,08,11,18,09,31.90
2014,08,11,18,10,31.80
2014,08,11,18,11,31.80
2014,08,11,18,12,31.80
2014,08,11,18,13,31.70
2014,08,11,18,14,31.70
2014,08,11,18,15,31.60
2014,08,11,18,16,31.60
2014,08,11,18,17,31.50
2014,08,11,18,18,31.40
2014,08,11,18,19,31.40
2014,08,11,18,20,31.40
2014,08,11,18,21,31.40
2014,08,11,18,22,31.40
2014,08,11,18,23,31.40
2014,08,11,18,24,31.30
2014,08,11,18,25,31.30
2014,08,11,18,26,31.30
2014,08,11,18,27,31.30
2014,08,11,18,28,31.30
2014,08,11,18,29,31.30
2014,08,11,18,30,31.30
2014,08,11,18,31,31.30
2014,08,11,18,32,31.30
2014,08,11,18,33,31.30
2014,08,11,18,34,31.30
2014,08,11,18,35,31.30
2014,08,11,18,36,31.30
2014,08,11,18,37,31.30
2014,08,11,18,38,31.30
2014,08,11,18,39,31.40
2014,08,11,18,40,31.40
2014,08,11,18,41,31.50
2014,08,11,18,42,31.60
2014,08,11,18,43,31.60
2014,08,11,18,44,31.60
2014,08,11,18,45,31.60
2014,08,11,18,46,31.50
2014,08,11,18,47,31.30
2014,08,11,18,48,31.20
2014,08,11,18,49,31.10
2014,08,11,18,50,31.10
2014,08,11,18,51,31.00
2014,08,11,18,52,31.00
2014,08,11,18,53,30.90
2014,08,11,18,54,30.90
2014,08,11,18,55,30.90
2014,08,11,18,56,30.90
2014,08,11,18,57,31.00
2014,08,11,18,58,31.00
2014,08,11,18,59,31.00
2014,08,11,19,00,31.00
2014,08,11,19,01,31.10
2014,08,11,19,02,31.10
2014,08,11,19,03,31.20
2014,08,11,19,04,31.20
2014,08,11,19,05,31.20
2014,08,11,19,06,31.30
2014,08,11,19,07,31.30
2014,08,11,19,08,31.40
2014,08,11,19,09,31.40
2014,08,11,19,10,31.40
2014,08,11,19,11,31.50
2014,08,11,19,12,31.50
2014,08,11,19,13,31.60
2014,08,11,19,14,31.60
2014,08,11,19,15,31.60
2014,08,11,19,16,31.60
2014,08,11,19,17,31.60
2014,08,11,19,18,31.50
2014,08,11,19,19,31.50
2014,08,11,19,20,31.40
2014,08,11,19,21,31.40
2014,08,11,19,22,31.30
2014,08,11,19,23,31.30
2014,08,11,19,24,31.20
2014,08,11,19,25,31.10
2014,08,11,19,26,30.90
2014,08,11,19,27,30.80
2014,08,11,19,28,30.60
2014,08,11,19,29,30.50
2014,08,11,19,30,30.30
2014,08,11,19,31,30.10
2014,08,11,19,32,29.90
2014,08,11,19,33,29.80
2014,08,11,19,34,29.60
2014,08,11,19,35,29.50
2014,08,11,19,36,29.30
2014,08,11,19,37,29.20
2014,08,11,19,38,29.00
2014,08,11,19,39,28.90
2014,08,11,19,40,28.70
2014,08,11,19,41,28.50
2014,08,11,19,42,28.40
2014,08,11,19,43,28.20
2014,08,11,19,44,28.10
2014,08,11,19,45,27.90
2014,08,11,19,46,27.80
2014,08,11,19,47,27.70
2014,08,11,19,48,27.60
2014,08,11,19,49,27.50
2014,08,11,19,50,27.40
2014,08,11,19,51,27.30
2014,08,11,19,52,27.30
2014,08,11,19,53,27.20
2014,08,11,19,54,27.10
2014,08,11,19,55,27.10
2014,08,11,19,56,27.00
2014,08,11,19,57,26.90
2014,08,11,19,58,26.90
2014,08,11,19,59,26.80
2014,08,11,20,00,26.80
2014,08,11,20,01,26.80
2014,08,11,20,02,26.70
2014,08,11,20,03,26.70
2014,08,11,20,04,26.60
2014,08,11,20,05,26.60
2014,08,11,20,06,26.50
2014,08,11,20,07,26.40
2014,08,11,20,08,26.40
2014,08,11,20,09,26.30
2014,08,11,20,10,26.30
2014,08,11,20,11,26.20
2014,08,11,20,12,26.10
2014,08,11,20,13,26.00
2014,08,11,20,14,25.90
2014,08,11,20,15,25.80
2014,08,11,20,16,25.70
2014,08,11,20,17,25.60
2014,08,11,20,18,25.50
2014,08,11,20,19,25.30
2014,08,11,20,20,25.20
2014,08,11,20,21,25.10
2014,08,11,20,22,25.00
2014,08,11,20,23,24.90
2014,08,11,20,24,24.80
2014,08,11,20,25,24.70
2014,08,11,20,26,24.60
2014,08,11,20,27,24.50
2014,08,11,20,28,24.40
2014,08,11,20,29,24.30
2014,08,11,20,30,24.30
2014,08,11,20,31,24.20
2014,08,11,20,32,24.10
2014,08,11,20,33,24.00
2014,08,11,20,34,23.90
2014,08,11,20,35,23.80
2014,08,11,20,36,23.70
2014,08,11,20,37,23.60
2014,08,11,20,38,23.60
2014,08,11,20,39,23.50
2014,08,11,20,40,23.40
2014,08,11,20,41,23.30
2014,08,11,20,42,23.30
2014,08,11,20,43,23.20
2014,08,11,20,44,23.10
2014,08,11,20,45,23.00
2014,08,11,20,46,23.00
2014,08,11,20,47,22.90
2014,08,11,20,48,22.80
2014,08,11,20,49,22.80
2014,08,11,20,50,22.70
2014,08,11,20,51,22.70
2014,08,11,20,52,22.60
2014,08,11,20,53,22.50
2014,08,11,20,54,22.40
2014,08,11,20,55,22.40
2014,08,11,20,56,22.30
2014,08,11,20,57,22.30
2014,08,11,20,58,22.20
2014,08,11,20,59,22.10
2014,08,11,21,00,22.10
2014,08,11,21,01,22.00
2014,08,11,21,02,22.00
2014,08,11,21,03,21.90
2014,08,11,21,04,21.80
2014,08,11,21,05,21.80
2014,08,11,21,06,21.80
2014,08,11,21,07,21.70
2014,08,11,21,08,21.60
2014,08,11,21,09,21.60
2014,08,11,21,10,21.50
2014,08,11,21,11,21.40
2014,08,11,21,12,21.40
2014,08,11,21,13,21.30
2014,08,11,21,14,21.30
2014,08,11,21,15,21.20
2014,08,11,21,16,21.10
2014,08,11,21,17,21.10
2014,08,11,21,18,21.00
2014,08,11,21,19,20.90
2014,08,11,21,20,20.90
2014,08,11,21,21,20.80